Regional Weather Roundup
Issued by NWS

Home | Current Version | Previous Version | Text Only | Print | Product List | Glossary On
Versions: 1 2 3 4 5 6 7 8 9 10 11 12 13 14 15 16 17 18 19 20 21 22 23 24 25 26 27 28 29 30 31 32 33 34 35 36 37 38 39 40 41 42 43 44 45 46 47 48 49 50
000
ASUS46 KSTO 250804
RWRCA

NORTHERN AND CENTRAL CA REGIONAL WEATHER ROUNDUP
NATIONAL WEATHER SERVICE SACRAMENTO CA
100 AM PDT TUE APR 25 2017

NOTE: FAIR INDICATES FEW OR NO CLOUDS BELOW 12,000 FEET WITH NO
SIGNIFICANT WEATHER AND/OR OBSTRUCTIONS TO VISIBILITY.

CAZ001-003-250900-
NORTHWEST AREA

CITY           SKY/WX    TMP DP  RH WIND       PRES   REMARKS
CRESCENT CITY  CLOUDY    49  47  93 SE6       30.09S
UKIAH          MOCLDY    51  43  74 N3        30.09S
$$

CAZ006-505>513-250900-
BAY AREA

CITY           SKY/WX    TMP DP  RH WIND       PRES   REMARKS
SANTA ROSA     PTCLDY    51  46  83 CALM      30.06S
SAN RAFAEL     N/A       54  MM  MM MISG
NAPA           CLEAR     52  47  83 W8        30.06F
CONCORD        CLEAR     54  47  77 S7        30.07R
OAKLAND CITY   N/A      MM  MM  MM MISG
OAKLAND        PTCLDY    56  49  77 W13       30.08S
SAN FRAN CITY  N/A       53  MM  76 MISG
SAN FRAN ARPT  PTCLDY    53  48  83 W23       30.09R
LIVERMORE      PTCLDY    51  46  83 SW9       30.07R
HAYWARD        PTCLDY    55  44  66 W3        30.08R
REDWOOD CITY   N/A       MM  MM  MM MISG
MOFFETT ARPT   PTCLDY    54  47  77 W5        30.10R
SAN JOSE ARPT  CLOUDY    55  46  71 W9        30.10R
$$
CAZ034-037-514>518-250900-
CENTRAL COAST

CITY           SKY/WX    TMP DP  RH WIND       PRES   REMARKS
WATSONVILLE    CLEAR     49  49 100 CALM      30.09R FOG
SALINAS        CLOUDY    55  50  83 SW9       30.09R
MONTEREY       CLOUDY    54  49  83 W6        30.10S
SAN LUIS OBISP CLEAR     53  50  89 NW13      30.01F
SANTA MARIA    CLEAR     50  50 100 NW9       30.02S
$$
CAZ015-016-250900-
NORTHERN SACRAMENTO VALLEY

CITY           SKY/WX    TMP DP  RH WIND       PRES   REMARKS
REDDING        MOCLDY    49  44  83 CALM      30.00R
RED BLUFF      MOCLDY    56  37  49 NW9       30.01R
OROVILLE       PTCLDY    55  50  83 SE9       30.02R
$$
CAZ016>018-250900-
SOUTHERN SACRAMENTO VALLEY

CITY           SKY/WX    TMP DP  RH WIND       PRES   REMARKS
AUBURN         PTCLDY    52  48  87 SE13      30.03R
BEALE AFB      CLOUDY    53  49  88 SE8       30.00S
LINCOLN        FAIR      54  46  76 SE7       30.02R
MARYSVILLE     MOCLDY    54  50  86 SE7       30.02S
SAC INTL ARPT  MOCLDY    54  51  90 SE6       30.01R
MATHER AIRPORT NOT AVBL
DOWNTOWN SAC   N/A       54  MM  MM MISG
SAC EXEC ARPT  MOCLDY    53  50  89 SE3       30.02R
VACAVILLE      PTCLDY    56  41  57 VRB3      30.02S
TRAVIS AFB     CLEAR     52  44  76 SW10      30.00F
$$
CAZ019>021-250900-
SAN JOAQUIN VALLEY

CITY           SKY/WX    TMP DP  RH WIND       PRES   REMARKS
STOCKTON       CLEAR     52  49  89 W10       30.02F
MODESTO        CLEAR     55  47  74 NW10      30.03R
MERCED         CLEAR     54  46  74 N12       30.03R
LEMOORE        CLEAR     54  45  71 NW12      30.00S
FRESNO         PTCLDY    56  49  77 NW13      30.00R
HANFORD        CLEAR     56  50  80 NW12      30.01R
PORTERVILLE      N/A     53  49  86 W6        30.00S
BAKERSFIELD    PTCLDY    57  49  74 NW7       29.99R
$$
CAZ011-012-071-250900-
NORTHERN MOUNTAINS

CITY           SKY/WX    TMP DP  RH WIND       PRES   REMARKS
YREKA          MOCLDY    42  35  76 NW7       30.03S
MOUNT SHASTA   CLOUDY    43  31  62 VRB5      30.00R
ALTURAS        MOCLDY    37  33  85 NW12      29.98S WCI  29
$$
CAZ011-012-071-250900-
SIERRA NEVADA MTNS

CITY           SKY/WX    TMP DP  RH WIND       PRES   REMARKS
TRUCKEE        CLOUDY    34  32  93 CALM      30.00S
TAHOE VLY ARPT CLOUDY    35  31  85 SE7       29.99S WCI  29
MAMMOTH LAKES  FAIR      44  19  36 W14G21    29.93F
$$




USA.gov is the U.S. government's official web portal to all federal, state and local government web resources and services.